User: anonymous   Login
Location: Vancouver
(49.2500°N, 123.1330°W)
Time: 15:34:22
(UTC-07:00)
Language:

YAOGAN 6 - Orbit

View from above orbital plane
View from above orbital plane
View from above satellite
View from above satellite

Ground track
Ground track

The orbit data is extracted from the following two-line orbital elements,

1 34839U 09021A   16212.23125905  .00000699  00000-0  30482-4 0  9993
2 34839  97.1927 270.2835 0030032  25.5719 334.6997 15.24977048403519
Epoch (UTC): 30 July 2016 05:33:00
Eccentricity: 0.0030032
inclination: 97.1927°
perigee height: 470 km
apogee height: 511 km
right ascension of ascending node: 270.2835°
argument of perigee: 25.5719°
revolutions per day: 15.24977048
mean anomaly at epoch: 334.6997°
orbit number at epoch: 40351

The dashed part of the orbit path shows where the satellite is in the earth's shadow,  

DLR